[Iaude] MPEC U261: 2023 FY48 [a=2.13,e=0.54,i=39.7,H=28.1]
    mpec at marsden.cfa.harvard.edu 
    mpec at marsden.cfa.harvard.edu
       
    Wed Oct 25 17:28:56 EDT 2023
    
    
  
M.P.E.C. 2023-U261                             Issued 2023 October 25, 21:27 UT
     The Minor Planet Electronic Circulars contain information on unusual
         minor planets, routine data on comets and natural satellites,
         and occasional editorial announcements.  They are published
    on behalf of Division F of the International Astronomical Union by the
          Minor Planet Center, Smithsonian Astrophysical Observatory,
                          Cambridge, MA 02138, U.S.A.
			  
             Prepared using the Tamkin Foundation Computer Network
                              MPC at CFA.HARVARD.EDU
            URL https://www.minorplanetcenter.net/    ISSN 1523-6714
                                   2023 FY48                                    
Observations:
     K23F48Y* C2023 03 18.51291410 56 53.266+07 59 51.22         16.9 GVEU261P07
     K23F48Y  C2023 03 18.51399110 56 28.481+07 49 23.84         16.8 GVEU261P07
     K23F48Y  C2023 03 18.55826610 39 12.271+00 27 19.91         16.8 GVEU261P07
     K23F48Y  C2023 03 18.62576610 12 18.898-10 53 08.05         17.2 GVEU261P07
     K23F48Y  C2023 03 18.66750109 55 44.263-17 27 14.98         17.4 GVEU261P07
Observer details:
P07 Space Surveillance Telescope, HEH Station.  Observers M. Blythe, R.
    Brungard, P. Festler, T. McVey, J. Paige, G. Spitz, L. Banks.  Measurers
    M. Cornell, M. Kotson, A. Lue, R. Rios, J. Ruprecht, J. Vaillancourt, J.
    Varey, H. Viggh, D. Woods, R. Monardez.  3.5-m f/1. Reflector + CCD.
Orbital elements:
2023 FY48                                                Earth MOID = 0.0025 AU
Epoch 2023 Sept. 13.0 TT = JDT 2460200.5                Veres                   
M  51.52781              (2000.0)            P               Q                  
n   0.31705311     Peri.  199.90344     -0.95173323     +0.30540203             
a   2.1300087      Node   357.25653     -0.11242709     -0.43951337             
e   0.5407097      Incl.   39.66654     -0.28559414     -0.84472338             
P   3.11           H   28.17          G   0.15           U   9                  
Residuals in seconds of arc
230318 P07  0.2-  0.2-    230318 P07  0.0   0.1-    230318 P07  0.0   0.0
230318 P07  0.2+  0.3+    230318 P07  0.0   0.1+
Ephemeris:
2023 FY48                a,e,i = 2.13, 0.54, 40                  q = 0.9783
Date    TT    R. A. (2000) Decl.     Delta      r    Elong.  Phase     V
2023 09 25    20 24 31.8 -55 05 06   1.5008  2.0546   108.6    27.6    31.8
...
2023 10 10    20 33 51.6 -47 54 27   1.7294  2.1513   100.7    27.1    32.2
...
2023 10 18    20 40 51.2 -44 30 50   1.8622  2.2012    95.9    26.8    32.4
...
2023 10 24    20 46 42.0 -42 08 48   1.9655  2.2377    92.3    26.4    32.6
2023 10 25    20 47 42.9 -41 45 57   1.9829  2.2438    91.6    26.3    32.6
2023 10 26    20 48 44.4 -41 23 20   2.0004  2.2498    91.0    26.2    32.6
...
2023 11 01    20 55 04.9 -39 12 09   2.1068  2.2854    87.3    25.7    32.8
...
2023 11 09    21 03 57.7 -36 28 13   2.2509  2.3319    82.1    24.9    32.9
...
2023 11 24    21 21 33.2 -31 48 50   2.5234  2.4157    72.4    22.9    33.2
M. P. C. Staff               (C) Copyright 2023 MPC           M.P.E.C. 2023-U261
    
    
More information about the Iaude
mailing list